| time (UTC) | temp F | wind direction | speed MPH | gust MPH | rain 1hr in | rain 24hr in | rain mn in | humidity % | barometer mb |
| 20260503200605 | 74 | 60 | 6.0 | 9.0 | 0.00 | 0.00 | 0.00 | 17 | 1019.5 |
| 20260503200007 | 73 | 153 | 2.0 | 11.0 | 0.00 | 0.00 | 0.00 | 16 | 1019.6 |
| 20260503195602 | 73 | 26 | 3.0 | 13.0 | 0.00 | 0.00 | 0.00 | 16 | 1019.7 |
| 20260503195002 | 74 | 13 | 2.0 | 13.0 | 0.00 | 0.00 | 0.00 | 16 | 1019.7 |
| 20260503194602 | 74 | 180 | 1.0 | 7.0 | 0.00 | 0.00 | 0.00 | 16 | 1019.8 |
| 20260503194104 | 74 | 269 | 3.0 | 7.0 | 0.00 | 0.00 | 0.00 | 16 | 1019.9 |
| 20260503193506 | 75 | 211 | 0.0 | 11.0 | 0.00 | 0.00 | 0.00 | 15 | 1020.1 |
| 20260503193102 | 74 | 190 | 2.0 | 11.0 | 0.00 | 0.00 | 0.00 | 16 | 1020.1 |
| 20260503192502 | 74 | 267 | 4.0 | 10.0 | 0.00 | 0.00 | 0.00 | 16 | 1020.2 |
| 20260503192058 | 75 | 247 | 2.0 | 10.0 | 0.00 | 0.00 | 0.00 | 17 | 1020.3 |
| 20260503191603 | 75 | 206 | 4.0 | 10.0 | 0.00 | 0.00 | 0.00 | 17 | 1020.3 |
| 20260503191054 | 75 | 242 | 3.0 | 15.0 | 0.00 | 0.00 | 0.00 | 17 | 1020.4 |
| 20260503190548 | 74 | 186 | 5.0 | 15.0 | 0.00 | 0.00 | 0.00 | 17 | 1020.4 |
| 20260503190048 | 73 | 333 | 1.0 | 9.0 | 0.00 | 0.00 | 0.00 | 18 | 1020.5 |
| 20260503185554 | 73 | 178 | 5.0 | 10.0 | 0.00 | 0.00 | 0.00 | 18 | 1020.8 |
| 20260503185104 | 73 | 355 | 5.0 | 10.0 | 0.00 | 0.00 | 0.00 | 19 | 1020.8 |
| 20260503184603 | 73 | 134 | 3.0 | 10.0 | 0.00 | 0.00 | 0.00 | 18 | 1021.0 |
| 20260503184101 | 73 | 221 | 4.0 | 11.0 | 0.00 | 0.00 | 0.00 | 19 | 1021.1 |
| 20260503183608 | 73 | 189 | 4.0 | 14.0 | 0.00 | 0.00 | 0.00 | 18 | 1021.1 |
| 20260503183007 | 72 | 127 | 5.0 | 12.0 | 0.00 | 0.00 | 0.00 | 20 | 1021.2 |
| 20260503182603 | 72 | 112 | 2.0 | 10.0 | 0.00 | 0.00 | 0.00 | 20 | 1021.3 |
| 20260503182005 | 72 | 211 | 7.0 | 10.0 | 0.00 | 0.00 | 0.00 | 20 | 1021.4 |
| 20260503181603 | 72 | 173 | 1.0 | 9.0 | 0.00 | 0.00 | 0.00 | 20 | 1021.5 |
| 20260503181106 | 71 | 209 | 2.0 | 10.0 | 0.00 | 0.00 | 0.00 | 20 | 1021.6 |
| 20260503180512 | 71 | 110 | 4.0 | 12.0 | 0.00 | 0.00 | 0.00 | 20 | 1021.7 |
| 20260503180008 | 71 | 211 | 4.0 | 12.0 | 0.00 | 0.00 | 0.00 | 20 | 1021.7 |
| 20260503175602 | 70 | 55 | 3.0 | 11.0 | 0.00 | 0.00 | 0.00 | 21 | 1021.7 |
| 20260503175006 | 70 | 159 | 5.0 | 9.0 | 0.00 | 0.00 | 0.00 | 22 | 1021.8 |
| 20260503174601 | 70 | 105 | 4.0 | 12.0 | 0.00 | 0.00 | 0.00 | 23 | 1021.9 |
| 20260503174006 | 69 | 141 | 7.0 | 13.0 | 0.00 | 0.00 | 0.00 | 23 | 1021.8 |
| 20260503173559 | 69 | 110 | 2.0 | 10.0 | 0.00 | 0.00 | 0.00 | 25 | 1022.0 |
| 20260503173114 | 68 | 102 | 5.0 | 10.0 | 0.00 | 0.00 | 0.00 | 26 | 1022.1 |
| 20260503172507 | 68 | 200 | 4.0 | 11.0 | 0.00 | 0.00 | 0.00 | 25 | 1022.2 |
| 20260503172105 | 68 | 143 | 5.0 | 11.0 | 0.00 | 0.00 | 0.00 | 27 | 1022.2 |
| 20260503171506 | 67 | 93 | 4.0 | 11.0 | 0.00 | 0.00 | 0.00 | 27 | 1022.2 |
| 20260503171014 | 67 | 38 | 6.0 | 11.0 | 0.00 | 0.00 | 0.00 | 27 | 1022.3 |
| 20260503170518 | 67 | 113 | 4.0 | 10.0 | 0.00 | 0.00 | 0.00 | 28 | 1022.4 |
| 20260503160113 | 61 | 119 | 7.0 | 12.0 | 0.00 | 0.00 | 0.00 | 33 | 1022.8 |
| 20260503151009 | 57 | 94 | 6.0 | 12.0 | 0.00 | 0.00 | 0.00 | 37 | 1023.1 |
| 20260503150605 | 56 | 84 | 8.0 | 13.0 | 0.00 | 0.00 | 0.00 | 37 | 1023.1 |
| 20260503131048 | 46 | 68 | 5.0 | 10.0 | 0.00 | 0.00 | 0.00 | 42 | 1022.7 |
| 20260503130556 | 45 | 42 | 4.0 | 10.0 | 0.00 | 0.00 | 0.00 | 41 | 1022.7 |
| 20260503110603 | 44 | 106 | 3.0 | 8.0 | 0.00 | 0.00 | 0.00 | 41 | 1022.5 |
| 20260503081516 | 47 | 113 | 2.0 | 4.0 | 0.00 | 0.00 | 0.00 | 37 | 1022.4 |
| 20260503081015 | 47 | 107 | 3.0 | 4.0 | 0.00 | 0.00 | 0.00 | 38 | 1022.5 |
| 20260503080521 | 47 | 110 | 3.0 | 4.0 | 0.00 | 0.00 | 0.00 | 37 | 1022.5 |
| 20260503072544 | 48 | 98 | 3.0 | 4.0 | 0.00 | 0.00 | 0.00 | 35 | 1022.5 |
| 20260503072050 | 49 | 94 | 3.0 | 4.0 | 0.00 | 0.00 | 0.00 | 34 | 1022.6 |
| 20260503071549 | 49 | 105 | 3.0 | 4.0 | 0.00 | 0.00 | 0.00 | 34 | 1022.5 |
| 20260503071049 | 49 | 103 | 2.0 | 4.0 | 0.00 | 0.00 | 0.00 | 33 | 1022.6 |
| 20260503070555 | 49 | 111 | 2.0 | 6.0 | 0.00 | 0.00 | 0.00 | 33 | 1022.6 |
| 20260503060110 | 53 | 98 | 2.0 | 3.0 | 0.00 | 0.00 | 0.00 | 30 | 1022.2 |
| 20260503055103 | 53 | 90 | 2.0 | 3.0 | 0.00 | 0.00 | 0.00 | 30 | 1022.2 |
| 20260503054506 | 53 | 93 | 2.0 | 3.0 | 0.00 | 0.00 | 0.00 | 30 | 1022.1 |
| 20260503054103 | 53 | 88 | 2.0 | 3.0 | 0.00 | 0.00 | 0.00 | 30 | 1022.0 |
| 20260503053505 | 54 | 108 | 2.0 | 3.0 | 0.00 | 0.00 | 0.00 | 30 | 1022.0 |
| 20260503053101 | 54 | 108 | 2.0 | 3.0 | 0.00 | 0.00 | 0.00 | 30 | 1022.0 |
| 20260503052505 | 54 | 136 | 2.0 | 4.0 | 0.00 | 0.00 | 0.00 | 30 | 1022.0 |
| 20260503052009 | 55 | 146 | 3.0 | 4.0 | 0.00 | 0.00 | 0.00 | 30 | 1021.9 |
| 20260503051616 | 55 | 175 | 1.0 | 4.0 | 0.00 | 0.00 | 0.00 | 30 | 1022.0 |
| 20260503051006 | 55 | 109 | 0.0 | 2.0 | 0.00 | 0.00 | 0.00 | 29 | 1021.9 |
| 20260503050605 | 55 | 109 | 0.0 | 2.0 | 0.00 | 0.00 | 0.00 | 29 | 1021.8 |
| 20260503050053 | 55 | 109 | 0.0 | 2.0 | 0.00 | 0.00 | 0.00 | 28 | 1021.9 |
| 20260503045601 | 55 | 109 | 0.0 | 2.0 | 0.00 | 0.00 | 0.00 | 28 | 1021.9 |
| 20260503045002 | 56 | 109 | 0.0 | 2.0 | 0.00 | 0.00 | 0.00 | 28 | 1021.8 |
| 20260503044513 | 56 | 109 | 0.0 | 1.0 | 0.00 | 0.00 | 0.00 | 28 | 1021.8 |
| 20260503044105 | 56 | 159 | 0.0 | 0.0 | 0.00 | 0.00 | 0.00 | 28 | 1021.9 |
| 20260503043506 | 56 | 159 | 0.0 | 0.0 | 0.00 | 0.00 | 0.00 | 28 | 1021.9 |
| 20260503043105 | 56 | 159 | 0.0 | 0.0 | 0.00 | 0.00 | 0.00 | 28 | 1021.8 |
| 20260503042552 | 56 | 159 | 0.0 | 0.0 | 0.00 | 0.00 | 0.00 | 28 | 1021.8 |
| 20260503042101 | 56 | 159 | 0.0 | 0.0 | 0.00 | 0.00 | 0.00 | 28 | 1021.8 |
| 20260503041502 | 56 | 159 | 0.0 | 0.0 | 0.00 | 0.00 | 0.00 | 28 | 1021.8 |
| 20260503041011 | 56 | 159 | 0.0 | 0.0 | 0.00 | 0.00 | 0.00 | 28 | 1021.8 |
| 20260503040606 | 56 | 159 | 0.0 | 0.0 | 0.00 | 0.00 | 0.00 | 28 | 1021.8 |
| 20260503040008 | 56 | 159 | 0.0 | 0.0 | 0.00 | 0.00 | 0.00 | 28 | 1021.8 |
| 20260503035604 | 57 | 159 | 0.0 | 0.0 | 0.00 | 0.00 | 0.00 | 27 | 1021.8 |
| 20260503035005 | 57 | 159 | 0.0 | 0.0 | 0.00 | 0.00 | 0.00 | 27 | 1021.6 |
| 20260503034512 | 57 | 159 | 0.0 | 0.0 | 0.00 | 0.00 | 0.00 | 27 | 1021.6 |
| 20260503034002 | 57 | 159 | 0.0 | 0.0 | 0.00 | 0.00 | 0.00 | 27 | 1021.6 |
| 20260503033514 | 57 | 159 | 0.0 | 0.0 | 0.00 | 0.00 | 0.00 | 26 | 1021.7 |
| 20260503033001 | 58 | 159 | 0.0 | 0.0 | 0.00 | 0.00 | 0.00 | 26 | 1021.6 |
| 20260503032557 | 58 | 159 | 0.0 | 0.0 | 0.00 | 0.00 | 0.00 | 26 | 1021.5 |
| 20260503032106 | 58 | 159 | 0.0 | 0.0 | 0.00 | 0.00 | 0.00 | 26 | 1021.5 |
| 20260503031556 | 59 | 159 | 0.0 | 0.0 | 0.00 | 0.00 | 0.00 | 25 | 1021.5 |
| 20260503031047 | 59 | 159 | 0.0 | 1.0 | 0.00 | 0.00 | 0.00 | 25 | 1021.5 |
| 20260503030554 | 59 | 159 | 0.0 | 1.0 | 0.00 | 0.00 | 0.00 | 25 | 1021.3 |
| 20260503030105 | 60 | 159 | 0.0 | 1.0 | 0.00 | 0.00 | 0.00 | 25 | 1021.3 |
| 20260503025503 | 60 | 159 | 0.0 | 1.0 | 0.00 | 0.00 | 0.00 | 24 | 1021.3 |
| 20260503025009 | 60 | 159 | 0.0 | 1.0 | 0.00 | 0.00 | 0.00 | 24 | 1021.2 |
| 20260503024524 | 61 | 159 | 0.0 | 2.0 | 0.00 | 0.00 | 0.00 | 24 | 1021.1 |
| 20260503024022 | 61 | 159 | 0.0 | 2.0 | 0.00 | 0.00 | 0.00 | 24 | 1021.2 |
| 20260503023530 | 62 | 159 | 0.0 | 2.0 | 0.00 | 0.00 | 0.00 | 23 | 1021.1 |
| 20260503023038 | 62 | 159 | 0.0 | 2.0 | 0.00 | 0.00 | 0.00 | 23 | 1021.1 |
| 20260503022544 | 63 | 127 | 0.0 | 2.0 | 0.00 | 0.00 | 0.00 | 23 | 1021.1 |
| 20260503022050 | 63 | 127 | 0.0 | 2.0 | 0.00 | 0.00 | 0.00 | 22 | 1021.1 |
| 20260503021602 | 64 | 127 | 0.0 | 2.0 | 0.00 | 0.00 | 0.00 | 22 | 1021.0 |
| 20260503021104 | 64 | 127 | 0.0 | 2.0 | 0.00 | 0.00 | 0.00 | 21 | 1021.0 |
| 20260503020505 | 65 | 127 | 0.0 | 2.0 | 0.00 | 0.00 | 0.00 | 21 | 1020.9 |
| 20260503015506 | 66 | 95 | 0.0 | 2.0 | 0.00 | 0.00 | 0.00 | 20 | 1020.9 |
| 20260503015058 | 66 | 95 | 0.0 | 2.0 | 0.00 | 0.00 | 0.00 | 20 | 1020.9 |
| 20260503014549 | 66 | 95 | 1.0 | 2.0 | 0.00 | 0.00 | 0.00 | 20 | 1020.8 |
| 20260503014057 | 67 | 95 | 0.0 | 4.0 | 0.00 | 0.00 | 0.00 | 19 | 1020.9 |
| 20260503013603 | 67 | 73 | 0.0 | 4.0 | 0.00 | 0.00 | 0.00 | 19 | 1020.9 |
| 20260503013007 | 68 | 87 | 1.0 | 4.0 | 0.00 | 0.00 | 0.00 | 19 | 1020.8 |
| 20260503012511 | 68 | 239 | 0.0 | 2.0 | 0.00 | 0.00 | 0.00 | 19 | 1020.9 |
| 20260503012019 | 68 | 240 | 0.0 | 6.0 | 0.00 | 0.00 | 0.00 | 19 | 1020.9 |
| 20260503011524 | 68 | 209 | 1.0 | 6.0 | 0.00 | 0.00 | 0.00 | 19 | 1020.8 |
| 20260503011032 | 68 | 221 | 1.0 | 2.0 | 0.00 | 0.00 | 0.00 | 19 | 1020.9 |
| 20260503010539 | 68 | 69 | 0.0 | 3.0 | 0.00 | 0.00 | 0.00 | 19 | 1020.9 |
| 20260503010048 | 69 | 69 | 1.0 | 3.0 | 0.00 | 0.00 | 0.00 | 18 | 1020.9 |
| 20260503005537 | 69 | 115 | 1.0 | 4.0 | 0.00 | 0.00 | 0.00 | 18 | 1020.9 |
| 20260503005045 | 69 | 138 | 1.0 | 7.0 | 0.00 | 0.00 | 0.00 | 19 | 1020.9 |
| 20260503004600 | 69 | 96 | 1.0 | 8.0 | 0.00 | 0.00 | 0.00 | 18 | 1021.0 |
| 20260503004058 | 69 | 119 | 1.0 | 4.0 | 0.00 | 0.00 | 0.00 | 18 | 1021.0 |
| 20260503003549 | 69 | 292 | 2.0 | 4.0 | 0.00 | 0.00 | 0.00 | 18 | 1021.0 |
| 20260503003111 | 70 | 287 | 1.0 | 3.0 | 0.00 | 0.00 | 0.00 | 18 | 1021.1 |
| 20260503002549 | 70 | 169 | 0.0 | 4.0 | 0.00 | 0.00 | 0.00 | 18 | 1021.2 |
| 20260503002056 | 70 | 163 | 1.0 | 7.0 | 0.00 | 0.00 | 0.00 | 18 | 1021.2 |
| 20260503001601 | 69 | 143 | 3.0 | 7.0 | 0.00 | 0.00 | 0.00 | 19 | 1021.1 |
| 20260503001038 | 69 | 151 | 1.0 | 6.0 | 0.00 | 0.00 | 0.00 | 18 | 1021.1 |
| 20260503000545 | 69 | 126 | 2.0 | 6.0 | 0.00 | 0.00 | 0.00 | 18 | 1021.1 |
| 20260503000036 | 69 | 165 | 2.0 | 7.0 | 0.00 | 0.00 | 0.00 | 19 | 1021.2 |
| 20260502235543 | 69 | 185 | 4.0 | 7.0 | 0.00 | 0.00 | 0.00 | 19 | 1021.2 |
| 20260502235048 | 69 | 92 | 2.0 | 5.0 | 0.00 | 0.00 | 0.00 | 18 | 1021.2 |
| 20260502234557 | 69 | 134 | 2.0 | 4.0 | 0.00 | 0.00 | 0.00 | 19 | 1021.2 |
| 20260502234048 | 69 | 161 | 0.0 | 7.0 | 0.00 | 0.00 | 0.00 | 20 | 1021.2 |
| 20260502233556 | 68 | 199 | 1.0 | 7.0 | 0.00 | 0.00 | 0.00 | 20 | 1021.3 |
| 20260502233047 | 67 | 194 | 3.0 | 8.0 | 0.00 | 0.00 | 0.00 | 20 | 1021.2 |
| 20260502232555 | 67 | 102 | 1.0 | 8.0 | 0.00 | 0.00 | 0.00 | 20 | 1021.3 |
| 20260502232059 | 68 | 134 | 1.0 | 8.0 | 0.00 | 0.00 | 0.00 | 20 | 1021.3 |
| 20260502231551 | 68 | 178 | 4.0 | 8.0 | 0.00 | 0.00 | 0.00 | 19 | 1021.3 |
| 20260502231059 | 68 | 156 | 3.0 | 7.0 | 0.00 | 0.00 | 0.00 | 21 | 1021.3 |
| 20260502230603 | 68 | 116 | 0.0 | 7.0 | 0.00 | 0.00 | 0.00 | 21 | 1021.4 |
| 20260502230007 | 69 | 167 | 3.0 | 9.0 | 0.00 | 0.00 | 0.00 | 20 | 1021.4 |
| 20260502225604 | 69 | 120 | 4.0 | 9.0 | 0.00 | 0.00 | 0.00 | 21 | 1021.3 |
| 20260502225005 | 69 | 254 | 2.0 | 6.0 | 0.00 | 0.00 | 0.00 | 21 | 1021.3 |
| 20260502224603 | 69 | 156 | 3.0 | 6.0 | 0.00 | 0.00 | 0.00 | 20 | 1021.4 |
| 20260502224002 | 69 | 308 | 2.0 | 8.0 | 0.00 | 0.00 | 0.00 | 20 | 1021.4 |
| 20260502223558 | 69 | 200 | 5.0 | 8.0 | 0.00 | 0.00 | 0.00 | 20 | 1021.4 |
| 20260502223049 | 69 | 186 | 4.0 | 7.0 | 0.00 | 0.00 | 0.00 | 20 | 1021.5 |
| 20260502222557 | 70 | 117 | 4.0 | 10.0 | 0.00 | 0.00 | 0.00 | 20 | 1021.5 |
| 20260502222106 | 69 | 126 | 6.0 | 10.0 | 0.00 | 0.00 | 0.00 | 20 | 1021.6 |
| 20260502221505 | 69 | 121 | 5.0 | 9.0 | 0.00 | 0.00 | 0.00 | 21 | 1021.7 |
| 20260502221102 | 69 | 108 | 4.0 | 12.0 | 0.00 | 0.00 | 0.00 | 20 | 1021.7 |
| 20260502220502 | 71 | 149 | 6.0 | 12.0 | 0.00 | 0.00 | 0.00 | 19 | 1021.7 |
| 20260502220059 | 72 | 175 | 6.0 | 10.0 | 0.00 | 0.00 | 0.00 | 19 | 1021.9 |
| 20260502215606 | 72 | 174 | 3.0 | 7.0 | 0.00 | 0.00 | 0.00 | 19 | 1021.9 |
| 20260502215008 | 71 | 140 | 3.0 | 9.0 | 0.00 | 0.00 | 0.00 | 19 | 1022.0 |
| 20260502214602 | 71 | 163 | 5.0 | 9.0 | 0.00 | 0.00 | 0.00 | 19 | 1022.0 |
| 20260502214009 | 71 | 175 | 6.0 | 10.0 | 0.00 | 0.00 | 0.00 | 19 | 1022.2 |
| 20260502213601 | 71 | 190 | 3.0 | 10.0 | 0.00 | 0.00 | 0.00 | 20 | 1022.4 |
| 20260502213008 | 71 | 168 | 4.0 | 10.0 | 0.00 | 0.00 | 0.00 | 20 | 1022.5 |
| 20260502212604 | 71 | 315 | 2.0 | 10.0 | 0.00 | 0.00 | 0.00 | 20 | 1022.6 |
| 20260502212004 | 71 | 172 | 3.0 | 10.0 | 0.00 | 0.00 | 0.00 | 21 | 1022.6 |
| 20260502211513 | 70 | 355 | 2.0 | 8.0 | 0.00 | 0.00 | 0.00 | 22 | 1022.7 |
| 20260502211105 | 69 | 345 | 3.0 | 8.0 | 0.00 | 0.00 | 0.00 | 22 | 1022.8 |
| 20260502210507 | 69 | 350 | 1.0 | 6.0 | 0.00 | 0.00 | 0.00 | 23 | 1022.9 |
| 20260502205505 | 67 | 59 | 0.0 | 7.0 | 0.00 | 0.00 | 0.00 | 24 | 1022.9 |
| 20260502205100 | 67 | 274 | 2.0 | 7.0 | 0.00 | 0.00 | 0.00 | 25 | 1023.0 |
| 20260502204552 | 66 | 63 | 2.0 | 6.0 | 0.00 | 0.00 | 0.00 | 24 | 1023.0 |
| 20260502204059 | 66 | 87 | 2.0 | 8.0 | 0.00 | 0.00 | 0.00 | 24 | 1023.0 |
| 20260502203549 | 67 | 134 | 2.0 | 10.0 | 0.00 | 0.00 | 0.00 | 23 | 1023.1 |
| 20260502203059 | 68 | 177 | 4.0 | 10.0 | 0.00 | 0.00 | 0.00 | 23 | 1023.1 |
| 20260502202546 | 69 | 165 | 5.0 | 10.0 | 0.00 | 0.00 | 0.00 | 23 | 1023.2 |
| 20260502202037 | 69 | 349 | 3.0 | 11.0 | 0.00 | 0.00 | 0.00 | 24 | 1023.2 |
| 20260502201545 | 68 | 82 | 4.0 | 11.0 | 0.00 | 0.00 | 0.00 | 23 | 1023.2 |
| 20260502201037 | 68 | 154 | 3.0 | 8.0 | 0.00 | 0.00 | 0.00 | 23 | 1023.2 |